Regional Weather Roundup
Issued by NWS Sterling, VA

Home | Current Version | Previous Version | Graphics & Text | Print | Product List | Glossary On
Versions: 1 2 3 4 5 6 7 8 9 10 11 12 13 14 15 16 17 18 19 20 21 22 23 24 25 26 27 28 29 30 31 32 33 34 35 36 37 38 39 40 41 42 43 44 45 46 47 48 49 50
000
ASUS41 KLWX 011510
RWRLWX

REGIONAL WEATHER ROUNDUP
NATIONAL WEATHER SERVICE BALTIMORE MD/WASHINGTON DC
1100 AM EDT WED OCT 01 2014

Note: "FAIR" indicates few or no clouds below 12,000 feet
with no significant weather and/or obstructions to visibility.
 TC=TEMPERATURE CELSIUS

 * =Non NWS site. Station does not report precipitation (e.g. rain,
    snow, etc.), thunder, or fog.

DCZ001-MDZ009-015-VAZ040>042-051-053>054-011600-
WASHINGTON METRO

CITY           SKY/WX    TMP DP  RH WIND       PRES   REMARKS
WASHINGTON NAT CLOUDY    69  61  75 NE6       30.05R
DULLES         CLOUDY    65  61  87 CALM      30.05S
ANDREWS AFB    CLOUDY    66  62  85 N5        30.04R
QUANTICO       PTSUNNY   68  62  81 N8        30.05R
COLLEGE PARK*  CLOUDY    68  63  83 N3        30.04S
LEESBURG*      CLOUDY    64  64 100 CALM      30.06S
GAITHERSBURG*  CLOUDY    63  61  94 CALM      30.09S

$$

MDZ006>007-011-014-011600-
BALTIMORE METRO

CITY           SKY/WX    TMP DP  RH WIND       PRES   REMARKS
BWI AIRPORT    PTSUNNY   68  61  77 NE9       30.04R
MD SCIENCE CTR   N/A     67  59  75 MISG      30.05S
MARTIN STATE   PTSUNNY   70  64  83 NE5       30.05S
ANNAPOLIS        N/A     68  61  78 MISG      30.03S
FORT MEADE*    CLOUDY    68  61  77 N3        30.06S

$$

MDZ012-015-019>023-011600-
MARYLAND EASTERN SHORE

CITY           SKY/WX    TMP DP  RH WIND       PRES   REMARKS
OCEAN CITY     CLOUDY    69  63  81 NE9       30.01R
SALISBURY      CLOUDY    71  62  73 N9        30.01S
BAY BRIDGE AP*   N/A     68  59  73 NE5       30.03S
CAMBRIDGE*     CLOUDY    66  61  82 NE7       30.02S
EASTON*        PTSUNNY   70  66  88 E9        30.06F

$$

MDZ017>025-011600-
SOUTHERN MARYLAND

CITY           SKY/WX    TMP DP  RH WIND       PRES   REMARKS
PATUXENT RIVER PTSUNNY   68  61  78 NE6       30.03R
ST INIGOES     CLOUDY    68  59  73 NE7       30.02R
LEONARDTOWN*   CLOUDY    68  59  73 NE3       30.04S

$$

MDZ003>005-011600-
NORTH CENTRAL MARYLAND

CITY           SKY/WX    TMP DP  RH WIND       PRES   REMARKS
FREDERICK*     CLOUDY    66  64  94 VRB5      30.08R FOG
HAGERSTOWN APT CLOUDY    65  59  81 NE3       30.06R
WESTMINSTER*   PTSUNNY   64  61  88 NE3       30.06S

$$

MDZ501>502-011600-
WESTERN MARYLAND

CITY           SKY/WX    TMP DP  RH WIND       PRES   REMARKS
OAKLAND*       CLOUDY    55 N/A N/A SE8       30.08S FOG
CUMBERLAND*    CLOUDY    63  61  94 CALM      30.10R

$$

VAZ025>031-011600-
SHENANDOAH VALLEY

CITY           SKY/WX    TMP DP  RH WIND       PRES   REMARKS
WINCHESTER*    CLOUDY    63  61  94 E6        30.05S
STAUNTON*      CLOUDY    66  58  75 CALM      30.07S

$$

WVZ021-048>050-054>055-011600-
EASTERN WEST VIRGINIA PANHANDLE

CITY           SKY/WX    TMP DP  RH WIND       PRES   REMARKS
MARTINSBURG    CLOUDY    64  59  83 CALM      30.06S HAZE
PETERSBURG*    CLOUDY   N/A N/A N/A CALM      30.07S

$$

VAZ036>039-050-011600-
CENTRAL FOOTHILLS

CITY           SKY/WX    TMP DP  RH WIND       PRES   REMARKS
CHARLOTTESVILL CLOUDY    66  62  87 CALM      30.04S FOG
ORANGE*        CLOUDY    63  63 100 CALM      30.06R FOG

$$

VAZ055>057-011600-
NORTH AND CENTRAL PIEDMONT

CITY           SKY/WX    TMP DP  RH WIND       PRES   REMARKS
FREDERICKSBRG* PTSUNNY   71  65  83 E5        30.03S
STAFFORD*      CLOUDY    68  66  93 E7        30.08S

$$

NCZ024-NYZ072-PAZ021-071-VAZ022-071-011600-
OTHER REGIONAL OBSERVATIONS

CITY           SKY/WX    TMP DP  RH WIND       PRES   REMARKS
NEW YORK CITY  CLOUDY    63  57  81 VRB5      30.08R
PHILADELPHIA   PTSUNNY   69  57  65 E9        30.05R
PITTSBURGH     CLOUDY    56  55  97 SW3       30.05R FOG
ROANOKE        MOSUNNY   66  57  72 CALM      30.07R
RICHMOND       MOSUNNY   74  62  66 NE5       30.02R
RALEIGH        PTSUNNY   69  63  81 CALM      30.04R

$$

ANZ530>537-011600-
MARINE OBSERVATIONS

STATION/POSITION TIME  TEMP    WIND        PRES
                       AIR SEA DIR/SP/G
                 (UTC) (F)     (DEG/KT/KT) (MB)
THOMAS PT LIGHT  1500   65 72   50/  8/ 10 1017.9R
BALT KEY BRIDGE  1500   66      60/  7/  8 1017.0S
COVE POINT       1500   65      30/  4/  6 1016.8R
LEWISETTA        1500   66 72   60/  6/  8 1016.5R
SOLOMONS ISLAND  1500      72                N/A
PINEY POINT      1500           40/  3/  4   N/A

$$



USA.gov is the U.S. government's official web portal to all federal, state and local government web resources and services.